Время (UTC), дата Ветер
(°,м/с) 
Видим.   Явления Облачность Т
(°С)
Тd
(°С)
f(%) Тe
(°С)
Pmin
(гПа)
dP
(гПа)
Po
(мм)
O2
(г/м3)
Тmin Tmax R s Состояние
почвы
00 01.11.16 250 (З) 20000 м  слаб. ливневой дождь  10/6 300 м кучево-дожд., средняя 
[Cb cap|Ac und]
+1.6 +0.2 90 -1  1015.7  0.1  720  288           
03 01.11.16 260 (З) 20000 м  {ливн. осадки}  8/8 300 м 
[St]
+1.9 +0.7 92 -1  1016  0.4  721  288  +0.5       
06 01.11.16 260 (З) 20000 м  {ливн. осадки}  9/9 600 м 
[Sc]
+2.7 +0.5 85 1016.7  0.7  721  288           
09 01.11.16 280 (З) 20000 м    8/6 600 м средняя 
[Sc|Ac trans]
+4.5 -1.1 67 +2  1016.4  -0.1  721  286           
12 01.11.16 270 (З) 20000 м    8/5 600 м средняя 
[Sc|Ac trans]
+5.7 -2.4 56 +4  1015.9  -0.3  721  285           
15 01.11.16 020 (С) 20000 м    9/6 600 м кучево-дожд., средняя 
[Cb calv|Ac trans]
+2 -0.4 84 +1  1017.3  0.6  722  289    +5.9       
18 01.11.16 030 (СВ) 20000 м    10/4 300 м кучево-дожд., средняя 
[Cb calv|Ac und]
+0.4 -1.3 88 1017.8  -0.1  722  290           
21 01.11.16 030 (СВ) 2000 м  слаб. ливневой снег  10/8 300 м кучево-дожд., средняя 
[Cb cap|Ac und]
-0.8 -1.7 94 -2  1018.4  0.4  722  292           
00 02.11.16 360 (С) 1200 м  ливневой снег  10/8 100 м кучево-дожд., средняя 
[Cb cap|Ac und]
-0.9 -1.6 95 -2  1019.4  0.9  723  292           
03 02.11.16 тихо ()   2000 м  слаб. ливневой снег  10/8 200 м кучево-дожд., средняя 
[Cb cap|Ac und]
-1.3 -1.8 96 -1  1020.1  0.6  723  293  -1.3    равномерный
мокрый или
старый снег
100% 
06 02.11.16 290 (З) 4000 м  дымка{ливн. осадки}  10/10 100 м 
[Ns]
-0.6 -1.3 95 -2  1021.6  0.6  724  293  -1.4         
09 02.11.16 270 (З) 10 км  {снег}  9/8 600 м средняя 
[Sc|Ac trans]
+0.9 -2.8 76 -1  1021.9  0.6  725  291           
12 02.11.16 270 (З) 20000 м  в посл. час снег  10/8 600 м средняя 
[Sc|Ac und]
+0.6 -2.7 79 -2  1022.9  0.9  725  292           
15 02.11.16 280 (З) 20000 м    5/0 средняя 
[Ac trans]
-1.2 -2.7 90 -3  1024.9  1.6  727  294    +1.2  0.9     
18 02.11.16 280 (З) 20000 м    3/0 средняя 
[Ac trans]
-2.1 -2.8 95 -3  1026.2  727  296           
21 02.11.16 220 (ЮЗ) 20000 м    ясно 
-3.8 -4.8 93 -6  1026.6  0.1  727  298           
00 03.11.16 200 (Ю) 20000 м    ясно 
-3.3 -5.2 87 -5  1026.1  -0.4  727  297           
03 03.11.16 170 (Ю) 20000 м    ясно 
-3 -4.7 88 -6  1025.3  -0.7  727  296  -5.2      мокрый или
старый снег
50-90% 
06 03.11.16 170 (Ю) 20000 м    8/0 верхняя 
[Ci fib]
+1.7 -2.5 74 1023.8  -0.5  726  291           
09 03.11.16 130 (ЮВ) 20000 м    9/0 средняя, верхняя 
[Ac trans|Ci fib]
+5.7 -2.7 55 +3  1022.3  -0.6  726  287           
12 03.11.16 140 (ЮВ) 20000 м    8/0 средняя, верхняя 
[Ac trans|Ci fib]
+7.3 -1.2 55 +5  1020.7  -1.2  725  285           
15 03.11.16 140 (ЮВ) 20000 м    9/0 средняя 
[Ac trans]
+3.4 -1.1 72 +1  1021.6  -1.2  725  289    +7.6       
18 03.11.16 140 (ЮВ) 20000 м    9/0 средняя 
[Ac trans]
+2.8 -0.5 79 +1  1021.3  -0.4  725  289           
21 03.11.16 160 (Ю) 20000 м    8/0 средняя 
[Ac trans]
+2.3 -2.2 72 1020.3  -1.1  724  289           
00 04.11.16 180 (Ю) 20000 м    3/0 средняя 
[Ac trans]
+2.7 -5.2 56 +1  1019.3  -0.9  723  289           
03 04.11.16 180 (Ю) 20000 м    8/0 средняя 
[Ac trans]
+5.1 -4.9 48 +5  1018.5  -0.3  723  286  +1.4         
06 04.11.16 230 (ЮЗ) 20000 м    9/0 средняя 
[Ac trans]
+11.2 -2.8 37 +11  1017.9  0.6  723  280           
09 04.11.16 310 (СЗ) 7-10{14}  20000 м    10/6 300 м средняя 
[St|Ac und]
+7.2 +3.6 78 +5  1020.1  1.4  724  284           
12 04.11.16 340 (С) 4{10}  20000 м    10/6 300 м средняя 
[St|Ac und]
+4.5 +1.5 81 +3  1022.2  1.4  725  287           
15 04.11.16 290 (З) 20000 м    10/6 600 м кучево-дожд., средняя 
[Cb calv|Ac und]
+3.4 +1.4 87 +3  1024  1.4  727  289    +12.4       
18 04.11.16 280 (З) 10 км  в посл. час ливневой дождь  10/6 600 м кучево-дожд., средняя 
[Cb calv|Ac und]
+2.7 +1.8 94 +2  1024.9  0.8  727  290           
21 04.11.16 270 (З) 10 км    10/5 600 м кучево-дожд., средняя 
[Cb calv|Ac und]
+2.5 +1.6 94 +2  1025.5  0.5  728  290           
00 05.11.16 240 (ЮЗ) 10 км    10/6 300 м кучево-дожд., средняя 
[Cb calv|Ac und]
+2.6 +1.8 94 +2  1025.6  0.1  728  290           
03 05.11.16 280 (З) 10 км    10/5 600 м средняя 
[Sc|Ac und]
+2.2 +1.3 94 +2  1025.5  0.1  728  291  +1.7    0.0     
06 05.11.16 280 (З) 20000 м    8/5 600 м средняя 
[Sc|Ac trans]
+2.6 +0.9 89 +1  1026.4  728  290           
09 05.11.16 280 (З) 20000 м    8/4 600 м средняя 
[Sc|Ac trans]
+5.1 +0.1 70 +3  1026.1  0.2  728  288           
12 05.11.16 300 (СЗ) 20000 м    6/3 600 м средняя, верхняя 
[Sc|Ac trans|Ci fib]
+4.9 -2 61 +3  1025.6  -0.5  728  288           
15 05.11.16 330 (СЗ) 20000 м    9/3 600 м средняя 
[Sc|Ac trans]
+1.8 -2.3 74 +3  1027.4  729  292    +6.1       
18 05.11.16 170 (Ю) 20000 м    8/3 1000 м средняя 
[Sc|Ac trans]
-1 -3 86 1027.9  729  295           
21 05.11.16 140 (ЮВ) 20000 м    3/0 средняя 
[Ac trans]
-1 -2.1 92 1027.9  0.1  729  295           
00 06.11.16 140 (ЮВ) 20000 м    ясно 
-1 -4.2 79 -3  1027.7  -0.2  729  295           
03 06.11.16 110 (В) 20000 м    3/0 средняя 
[Ac trans]
-2.2 -4.5 84 -4  1027.8  -0.1  728  296  -2.3         
06 06.11.16 140 (ЮВ) 20000 м    8/8 200 м 
[St]
+0.4 -0.9 91 -3  1027.4  0.1  729  293           
09 06.11.16 150 (ЮВ) 20000 м    3/3 300 м 
[St]
+6.7 +1.4 69 +5  1025.1  -1  728  286           
12 06.11.16 120 (ЮВ) 20000 м    4/0 верхняя 
[Ci fib]
+8.6 +1.9 63 +7  1023.5  -1.1  727  284           
15 06.11.16 160 (Ю) 20000 м    3/0 средняя 
[Ac trans]
+3.4 +1.2 85 +1  1024.3  -0.2  727  289    +9.1       
18 06.11.16 140 (ЮВ) 10 км    3/0 средняя 
[Ac trans]
+2.8 +1.3 90 1023.8  -0.5  726  289           
21 06.11.16 130 (ЮВ) 20000 м    ясно 
+1.4 +0.3 92 -1  1023.4  -0.7  726  291           
00 07.11.16 170 (Ю) 20000 м    ясно 
+0.4 -1.1 90 -2  1022.6  -0.9  725  292           
03 07.11.16 140 (ЮВ) 20000 м    ясно 
+2.7 -0.3 81 1021.5  -0.6  725  289  +0.3         
06 07.11.16 150 (ЮВ) 20000 м    8/0 средняя, верхняя 
[Ac trans|Ci fib]
+7.3 +1.1 65 +6  1020.9  0.4  725  284           
09 07.11.16 120 (ЮВ) 20000 м    8/0 средняя, верхняя 
[Ac trans|Ci fib]
+15.2 +0 35 +15  1018.2  -1.1  724  276           
12 07.11.16 120 (ЮВ) 20000 м    9/0 средняя, верхняя 
[Ac trans|Ci fib]
+14.6 +0.5 38 +14  1017.4  -0.9  723  277           
15 07.11.16 130 (ЮВ) 20000 м    5/0 средняя 
[Ac trans]
+10.7 +1.8 54 +10  1018.2  0.1  724  280    +15.8       
18 07.11.16 150 (ЮВ) 20000 м    3/0 средняя 
[Ac trans]
+9.7 -0.8 48 +9  1019  0.5  724  282           
21 07.11.16 200 (Ю) 20000 м    8/0 средняя 
[Ac trans]
+10.4 -4.2 36 +10  1019.5  0.6  724  282           
00 08.11.16 150 (ЮВ) 20000 м    9/0 средняя 
[Ac trans]
+9.4 -0.4 50 +9  1019.2  -0.4  724  282           
03 08.11.16 180 (Ю) 20000 м    6/0 средняя 
[Ac trans]
+11.6 +0.3 46 +12  1020  1.2  725  280  +8.6         
06 08.11.16 140 (ЮВ) 20000 м    5/0 средняя 
[Ac trans]
+16.3 +0.5 34 +17  1019.9  0.8  725  276           
09 08.11.16 130 (ЮВ) 20000 м    8/0 верхняя 
[Ci]
+20.8 +0.9 27 +21  1019.1  725  271           
12 08.11.16 080 (В) 20000 м    4/0 верхняя 
[Ci fib]
+20.5 +0.7 27 +21  1018.7  -0.4  725  272           
15 08.11.16 100 (В) 20000 м    4/0 верхняя 
[Ci fib]
+12.4 +2 49 +12  1019.7  -0.5  725  279    +21.6       
18 08.11.16 130 (ЮВ) 20000 м    3/0 верхняя 
[Ci fib]
+9.9 +2.9 62 +9  1019.2  -0.9  724  281           
21 08.11.16 200 (Ю) 20000 м    8/0 средняя, верхняя 
[Ac trans|Cc]
+9.1 +2.9 65 +9  1019  -0.3  724  282           
00 09.11.16 160 (Ю) 20000 м    9/0 средняя 
[Ac trans]
+12.6 -0 42 +13  1017.7  -0.6  723  279           
03 09.11.16 310 (СЗ) 20000 м    8/0 средняя 
[Ac trans]
+13.6 +0.3 40 +15  1017.4  0.1  723  277  +8.6         
06 09.11.16 180 (Ю) 20000 м    9/0 средняя 
[Ac trans]
+19.9 +0.8 28 +21  1017  0.7  724  272           
09 09.11.16 160 (Ю) 20000 м    4/0 средняя, верхняя 
[Ac trans|Ci fib]
+22.8 +4.3 30 +23  1016.5  0.1  724  269           
12 09.11.16 190 (Ю) 20000 м    5/3 1000 м средняя, верхняя 
[Sc|Ac trans|Ci fib]
+24 +2.5 25 +24  1016.1  -0.2  724  268           
15 09.11.16 160 (Ю) 20000 м    3/0 верхняя 
[Ci fib]
+17.2 +2 36 +18  1017.7  0.3  724  274    +24.9       
18 09.11.16 160 (Ю) 20000 м    8/0 верхняя 
[Ci]
+16 +1.6 38 +17  1017.3  -0.6  724  275           
21 09.11.16 120 (ЮВ) 20000 м    8/0 верхняя 
[Ci fib]
+15.3 +0.9 38 +16  1016.6  -0.8  723  276           
00 10.11.16 120 (ЮВ) 20000 м    10/0 средняя, верхняя 
[Ac trans|Ci fib]
+14.6 +1.7 42 +14  1014.1  -2.5  721  275           
03 10.11.16 130 (ЮВ) 20000 м    8/0 средняя 
[Ac trans]
+14.7 -2 32 +14  1012.3  -1.8  720  275  +12.8         
06 10.11.16 120 (ЮВ) 6-10{13}  20000 м    10/4 1000 м средняя 
[Sc|Ac und]
+16.7 -3 26 +16  1010.6  -1.3  719  273           
09 10.11.16 140 (ЮВ) 5{12}  20000 м    10/4 1000 м средняя 
[Sc|Ac und]
+18.9 -6.1 18 +19  1008.9  -1.1  718  271           
12 10.11.16 160 (Ю) 2{10}  20000 м    8/3 1000 м средняя 
[Sc|Ac As]
+21.5 -2.3 20 +22  1007.5  -0.9  717  268           
15 10.11.16 300 (СЗ) 6-11{11}  20000 м    4/0 средняя 
[Ac As]
+17.8 +5.7 45 +18  1011.3  -0.9  720  271    +23.4       
18 10.11.16 270 (З) 5{11}  20000 м    4/0 средняя 
[Ac trans]
+13.4 +5.7 60 +13  1013.7  1.4  721  276           
21 10.11.16 260 (З) 7-12{12}  20000 м    3/0 средняя 
[Ac trans]
+13.3 +3.6 52 +12  1015  1.2  722  277           
00 11.11.16 270 (З) 7-12{12}  20000 м    1/0 средняя 
[Ac trans]
+11.7 +4.4 61 +10  1016.4  722  278           
03 11.11.16 280 (З) 5{13}  20000 м    8/0 средняя 
[Ac trans]
+9.5 +6.7 83 +8  1018.9  724  281  +9.3         
06 11.11.16 260 (З) 20000 м    10/10 300 м 
[St]
+9.4 +6.7 83 +8  1021.5  2.4  726  282  +8.9         
09 11.11.16 250 (З) 20000 м    4/3 600 м верхняя 
[Sc|Ci fib]
+13.2 +5.7 60 +13  1020.6  -0.2  726  278           
12 11.11.16 тихо ()   20000 м    8/3 600 м верхняя 
[Sc|Ci fib]
+13 +5.7 61 +13  1020.4  -0.3  725  278           
15 11.11.16 090 (В) 20000 м    8/3 1000 м верхняя 
[Sc|Ci fib]
+8.8 +5 77 +10  1022  0.8  726  283    +13.5       
18 11.11.16 130 (ЮВ) 20000 м    10/5 1000 м средняя 
[Sc|Ac und]
+9.4 +5.4 76 +9  1021.7  -0.2  726  282           
21 11.11.16 110 (В) 20000 м  {ливн. осадки}  6/3 600 м кучево-дожд., средняя 
[Cb calv|Ac trans]
+8 +5.8 86 +7  1022.2  0.2  726  283           
00 12.11.16 160 (Ю) 10 км  {ливн. осадки}  8/0 средняя 
[Ac trans]
+7 +5.9 93 +6  1022.2  -0.2  726  284           
03 12.11.16 280 (З) 5{10}  20000 м    8/0 средняя 
[Ac trans]
+8.6 +6.4 86 +7  1023.3  1.3  727  283  +7    0.0     
06 12.11.16 270 (З) 10 км  в посл. час дождь  8/5 1000 м средняя 
[Sc|Ac trans]
+9.4 +8 91 +8  1025.5  2.2  729  282           
09 12.11.16 310 (СЗ) 0700 м  туман{дождь}  ?/?  
+7.9 +7.2 95 +7  1027.4  1.6  730  285           
12 12.11.16 300 (СЗ) 1100 м  дымка{дождь, туман}  10/10 200 м 
[St]
+6.9 +5.7 92 +6  1028.5  0.8  730  286           
15 12.11.16 210 (ЮЗ) 20000 м    4/4 300 м 
[St]
+4.2 +2.6 89 +5  1030.1  731  290    +9.7  0.5     
18 12.11.16 060 (СВ) 3000 м  дымка  6/3 300 м верхняя 
[St|Ci sp]
+3.1 +2.3 94 +3  1029.6  -0.8  731  291           
21 12.11.16 120 (ЮВ) 0200 м  туман  ?/?  
+3.1 +2.5 96 +2  1028.5  -0.9  730  290           
00 13.11.16 110 (В) 10 км  {туман}  8/8 600 м 
[Sc]
+3.4 +1.8 89 +1  1026.1  -2.2  728  289           
03 13.11.16 120 (ЮВ) 20000 м    5/5 600 м 
[Sc]
+3.1 +0.4 82 1024.5  -1.6  727  289  +1.6         
06 13.11.16 100 (В) 4000 м  дымка  10/10 200 м 
[St]
+3.8 +2.6 92 +1  1022.9  -1.3  726  288           
09 13.11.16 130 (ЮВ) 8-12{13}  20000 м    10/10 300 м 
[St]
+7.1 +5 86 +4  1019.8  -1.3  724  284           
12 13.11.16 110 (В) 8-11{15}  20000 м    8/8 300 м 
[Sc]
+7.9 +4.1 77 +5  1018  -1.6  723  282           
15 13.11.16 130 (ЮВ) 8-11{13}  20000 м    10/6 300 м средняя 
[St|Ac und]
+5 +3.5 90 +2  1018.1  -0.5  723  285    +9.4       
18 13.11.16 150 (ЮВ) 8-12{13}  10 км    10/8 200 м средняя 
[St|Ac und]
+5.4 +3.9 90 +2  1018.1  -0.1  723  285           
21 13.11.16 140 (ЮВ) 1{12}  20000 м    10/5 600 м средняя 
[Sc|Ac und]
+6.3 +3.6 83 +7  1020.7  2.6  725  285           
00 14.11.16 190 (Ю) 20000 м  в посл. час дождь  10/4 1000 м средняя 
[Sc|Ac und]
+7.7 +4.8 82 +6  1019.8  -0.6  724  283           
03 14.11.16 150 (ЮВ) 20000 м  слаб. дождь  10/5 1000 м средняя 
[Sc|Ac und]
+7.1 +4.6 84 +6  1019.7  -0.2  724  284  +4.8    0.7     
06 14.11.16 230 (ЮЗ) 20000 м  {дождь}  10/6 1000 м средняя 
[Sc|Ac und]
+7.1 +5.3 88 +7  1021.8  726  284           
09 14.11.16 250 (З) 20000 м  {дождь}  10/6 1500 м средняя 
[Sc|Ac und]
+9.2 +5.6 78 +9  1021  725  282           
12 14.11.16 250 (З) 6-11{11}  20000 м  слаб. ливневой дождь  10/6 600 м кучево-дожд., средняя 
[Cb cap|Ac und]
+7.8 +4.9 82 +6  1021.9  0.6  726  283           
15 14.11.16 250 (З) 3{14}  20000 м  слаб. ливневой дождь  10/8 1000 м кучево-дожд., средняя 
[Cb cap|Ac und]
+6.5 +4.5 87 +6  1022.9  0.8  726  285    +9.5     
18 14.11.16 260 (З) 20000 м  {ливн. осадки}  10/10 1000 м 
[Sc]
+5.9 +3.7 86 +4  1023.5  0.4  727  286           
21 14.11.16 280 (З) 20000 м    10/4 1000 м средняя 
[Sc|Ac und]
+4.2 +2.7 90 +3  1024.5  0.6  727  288           
00 15.11.16 260 (З) 20000 м    10/5 300 м средняя 
[Sc|Ac und]
+3.4 +1.9 90 +2  1024.7  727  289           
03 15.11.16 260 (З) 20000 м    10/10 300 м 
[St]
+3.3 +1.6 89 +1  1025  0.3  727  289  +2.4    0.6     
06 15.11.16 260 (З) 20000 м    10/4 600 м средняя 
[Sc|Ac und]
+3.6 +1.8 88 +2  1025.8  0.9  728  289           
09 15.11.16 300 (СЗ) 20000 м    10/5 300 м средняя 
[St|Ac und]
+3.9 +1.4 84 +3  1025.4  -0.4  728  289           
12 15.11.16 340 (С) 20000 м    10/10 300 м 
[St]
+4.3 +0.7 77 +4  1025.5  0.2  728  289           
15 15.11.16 150 (ЮВ) 20000 м    10/6 600 м средняя 
[Sc|Ac und]
+3.4 +1 84 +3  1025.6  0.1  728  289    +4.6       
18 15.11.16 120 (ЮВ) 20000 м    10/8 600 м средняя 
[Sc|Ac und]
+3.4 +1.7 89 +4  1024.9  -0.6  727  289           
21 15.11.16 090 (В) 20000 м    10/8 600 м средняя 
[Sc|Ac und]
+3.2 +1.8 91 +3  1024  -0.9  727  289           
00 16.11.16 080 (В) 20000 м    10/8 300 м средняя 
[Sc|Ac und]
+3 +1.6 91 +1  1023.5  -0.5  726  289           
03 16.11.16 080 (В) 4000 м  дымка{дождь}  10/10 200 м 
[St]
+2.4 +1.7 95 1022.8  -0.8  726  290  +2.4    0.4     
06 16.11.16 090 (В) 1500 м  дымка{дождь}  10/10 100 м 
[St]
+2.7 +2.1 96 1022.8  0.1  726  289           
09 16.11.16 080 (В) 0200 м  туман  ?/?  
+1.9 +1.4 96 -2  1022  -1  725  290           
12 16.11.16 090 (В) 0200 м  туман  ?/?  
+1 +0.5 96 -3  1022  -0.2  725  291           
15 16.11.16 090 (В) 8-10{10}  0100 м  туман  ?/?  
+0.1 -0.4 96 -4  1022.5  0.3  725  292    +2.8       
18 16.11.16 080 (В) 8-11{12}  0300 м  слаб. снег{туман}  ?/?  
-1.1 -1.5 97 -6  1022  -0.7  725  293           
21 16.11.16 080 (В) 7-10{12}  1800 м  слаб. снег{туман}  10/10 100 м 
[Ns]
-1.9 -2.3 97 -6  1021.6  -0.7  724  294           
00 17.11.16 080 (В) 7{11}  1200 м  слаб. снег{туман}  10/10 100 м 
[Ns]
-3 -3.5 96 -7  1021.4  -0.4  724  295           
03 17.11.16 050 (СВ) 0500 м  снег{туман}  ?/?  
-3.8 -4.4 96 -8  1021.1  -0.4  724  296  -3.8    равномерный
мокрый или
старый снег
100% 
06 17.11.16 060 (СВ) 1300 м  слаб. снег{туман}  10/10 100 м 
[Frnb|Ns]
-4 -4.7 95 -7  1023.1  1.8  725  297  -4.3         
09 17.11.16 080 (В) 1500 м  снег  10/10 100 м 
[Frnb|Ns]
-3.4 -4.1 95 -6  1024  1.1  726  296           
12 17.11.16 130 (ЮВ) 6000 м  в посл. час снег  10/6 100 м средняя 
[St|As trans]
-2.8 -3.4 96 -4  1024.9  0.9  726  296           
15 17.11.16 140 (ЮВ) 20000 м    10/10 200 м 
[St]
-3.2 -3.8 96 -4  1026.6  1.6  728  297    -2.8     
18 17.11.16 120 (ЮВ) 10 км    10/10 100 м 
[St]
-2.6 -3.2 96 -5  1027.6  728  297           
21 17.11.16 310 (СЗ) 0300 м  туман  ?/?  
-2.9 -3.5 96 -4  1028.4  0.7  729  297           
00 18.11.16 310 (СЗ) 0200 м  переохл. туман [диам. изморози 1 мм]  ?/?  
-2.5 -3 96 -4  1029.6  1.2  730  297           
03 18.11.16 310 (СЗ) 0200 м  переохл. туман [диам. сложн. отлож. 2 мм]  ?/?  
-2.6 -3.2 96 -5  1030.9  1.2  731  298  -3.2      равномерный
мокрый или
старый снег
100% 
06 18.11.16 290 (З) 0800 м  туман [диам. сложн. отлож. 3 мм]  ?/?  
-2.3 -2.9 96 -3  1032.2  1.3  732  298           
09 18.11.16 280 (З) 10 км  {туман} [диам. сложн. отлож. 1 мм]  10/10 200 м 
[St]
-2 -2.6 96 -5  1033.4  1.2  732  298           
12 18.11.16 310 (СЗ) 20000 м  {туман} [диам. сложн. отлож. 1 мм]  10/6 200 м средняя 
[St|Ac und]
-1.8 -2.3 96 -1  1033.8  1.2  733  297           
15 18.11.16 090 (В) 4000 м  дымка  10/10 100 м 
[St]
-2.5 -3 96 -2  1035.7  1.6  734  299    -1.4       
18 18.11.16 150 (ЮВ) 4000 м  дымка  10/10 100 м 
[St]
-2.8 -3.4 96 -5  1036.5  0.7  735  299           
21 18.11.16 140 (ЮВ) 0100 м  переохл. туман [диам. изморози 1 мм]  ?/?  
-3.8 -4.4 96 -6  1036.8  -0.1  735  301           
00 19.11.16 140 (ЮВ) 0100 м  переохл. туман [диам. изморози 3 мм]  ?/?  
-4.5 -5.2 95 -6  1038  0.9  735  302           
03 19.11.16 150 (ЮВ) 0100 м  переохл. туман [диам. изморози 5 мм]  ?/?  
-6.2 -7.1 93 -8  1039.6  1.1  736  304  -6.3      равномерный
мокрый или
старый снег
100% 
06 19.11.16 130 (ЮВ) 0100 м  переохл. туман [диам. изморози 9 мм]  ?/?  
-6 -6.8 94 -6  1040.6  737  304           
09 19.11.16 130 (ЮВ) 0100 м  туман [диам. изморози 10 мм]  8/8 100 м 
[St]
-4.3 -5.1 94 -7  1039.4  -0.8  736  302           
12 19.11.16 070 (В) 4000 м  дымка{туман}  4/4 100 м 
[St]
-3.8 -4.5 95 -6  1038.9  -0.4  736  301           
15 19.11.16 100 (В) 4000 м  дымка  10/10 100 м 
[St]
-4.8 -5.5 95 -9  1039.9  0.7  737  303    -3       
18 19.11.16 100 (В) 0500 м  переохл. туман [диам. изморози 3 мм]  ?/?  
-4.9 -5.6 95 -9  1040.1  0.1  737  303           
21 19.11.16 110 (В) 0300 м  переохл. туман [диам. изморози 5 мм]  ?/?  
-5 -5.8 94 -9  1039.6  0.1  736  303           
00 20.11.16 110 (В) 7{11}  0700 м  переохл. туман [диам. изморози 8 мм]  ?/?  
-4.9 -5.6 95 -10  1039.3  -0.3  736  303           
03 20.11.16 110 (В) 7{10}  20000 м  {туман} [диам. изморози 9 мм]  10/10 300 м 
[St]
-3.7 -4.4 95 -8  1039.2  0.2  736  301  -5.3      равномерный
мокрый или
старый снег
100% 
06 20.11.16 110 (В) 10-13{16}  20000 м  {туман} [диам. изморози 7 мм]  10/10 300 м 
[St]
-3.7 -4.4 95 -9  1039.2  0.4  737  301           
09 20.11.16 110 (В) 11-14{17}  20000 м    9/9 300 м 
[St]
-1.5 -2.1 96 -7  1038.7  -0.3  736  299           
12 20.11.16 110 (В) 11-15{17}  20000 м  позёмок  10/10 200 м 
[St]
-0.5 -1.1 96 -6  1038.3  -0.2  736  297           
15 20.11.16 110 (В) 11-14{18}  20000 м  позёмок  10/10 200 м 
[St]
-0.1 -0.7 96 -5  1038.7  0.5  737  297    -0.1       
18 20.11.16 110 (В) 13-18{19}  20000 м  позёмок  10/10 200 м 
[St]
+0 -1.1 92 -6  1038.5  -0.2  736  297           
21 20.11.16 110 (В) 13-18{20}  20000 м  позёмок  10/10 200 м 
[St]
-0.8 -1.8 93 -7  1038.8  0.1  736  298           
00 21.11.16 110 (В) 13-20{20}  20000 м  позёмок  10/10 300 м 
[St]
-1.2 -2.4 92 -7  1038.7  0.1  736  298           
03 21.11.16 100 (В) 16-21{21}  20000 м  позёмок  10/10 300 м 
[St]
-1.6 -2.9 91 -8  1038.6  -0.2  736  299  -1.6      неравномерный
мокрый или
старый снег
100% 
06 21.11.16 110 (В) 17-23{24}  20000 м  позёмок  8/8 300 м 
[St]
-1.5 -3.1 89 -8  1038.4  -0.2  736  299  -1.6         
09 21.11.16 110 (В) 17-21{24}  20000 м  позёмок  9/9 300 м 
[Sc]
-1.2 -3.1 87 -8  1038.3  0.1  736  298           
12 21.11.16 120 (ЮВ) 14-20{22}  20000 м  позёмок  10/10 300 м 
[Sc]
-1.4 -3.4 86 -8  1039.6  1.2  737  299           
15 21.11.16 110 (В) 14-20{22}  20000 м  позёмок  10/10 600 м 
[Sc]
-1.4 -4.2 81 -8  1040.3  0.6  737  299    -0.7       
18 21.11.16 120 (ЮВ) 12-17{21}  20000 м    9/9 300 м 
[Sc]
-2.4 -4.9 83 -8  1040.5  737  300           
21 21.11.16 110 (В) 12-16{18}  20000 м    10/10 300 м 
[St]
-3.3 -5.2 87 -10  1041.2  0.5  738  301           
00 22.11.16 120 (ЮВ) 12-17{17}  20000 м    9/9 300 м 
[St]
-3.8 -5.7 87 -10  1041.1  -0.2  738  302           
03 22.11.16 110 (В) 13-16{20}  20000 м    10/8 300 м средняя 
[St|Ac und]
-4.2 -6.1 87 -11  1041.5  0.3  738  303  -4.2      неравномерный
мокрый или
старый снег
100% 
06 22.11.16 110 (В) 13-17{20}  20000 м    6/6 300 м 
[St]
-3.6 -5.9 84 -10  1041.9  0.5  738  302  -4.4         
09 22.11.16 110 (В) 12-18{19}  20000 м    3/3 300 м 
[Sc]
-1.7 -6.1 72 -8  1041.4  -0.2  738  300           
12 22.11.16 110 (В) 14-19{19}  20000 м    1/1 600 м 
[Sc]
-1.4 -6 71 -8  1040.2  -1  737  299           
15 22.11.16 110 (В) 8-12{19}  20000 м    ясно 
-3.1 -6.6 77 -8  1040.4  -0.2  737  301    -1.1       
18 22.11.16 110 (В) 7{13}  20000 м    ясно 
-5 -7.5 83 -10  1041.1  0.2  737  303           
21 22.11.16 110 (В) 8-10{12}  20000 м    ясно 
-6.1 -8.4 84 -12  1040.6  -0.6  737  305           
00 23.11.16 110 (В) 8-10{12}  20000 м    ясно 
-7.3 -9.5 84 -13  1039.9  -1  736  306           
03 23.11.16 110 (В) 9-12{14}  20000 м    ясно 
-7.3 -9.5 84 -14  1038.8  -0.9  735  305  -7.7      неравномерный
мокрый или
старый снег
100% 
06 23.11.16 110 (В) 14-19{20}  20000 м    3/3 300 м 
[St]
-6.1 -8.8 81 -14  1038.9  0.3  736  304           
09 23.11.16 110 (В) 11-16{19}  20000 м    1/1 300 м 
[St]
-2.8 -7.1 72 -9  1036.6  -1.5  735  300           
12 23.11.16 120 (ЮВ) 12-17{18}  20000 м    3/3 300 м 
[St]
-2.1 -5.8 76 -8  1036.4  735  299           
15 23.11.16 120 (ЮВ) 11-14{19}  20000 м    ясно 
-2.3 -6.2 75 -8  1036.1  -0.3  734  299    -2       
18 23.11.16 100 (В) 9-12{14}  20000 м    ясно 
-2.2 -7.1 69 -7  1034.8  -1.2  733  299           
21 23.11.16 130 (ЮВ) 4{14}  20000 м    ясно 
-4.2 -7.7 77 -7  1034.6  -0.7  733  301           
00 24.11.16 130 (ЮВ) 20000 м    ясно 
-5 -7.7 81 -10  1033.9  -0.8  732  301           
03 24.11.16 140 (ЮВ) 4{10}  20000 м    ясно 
-5 -9.1 73 -8  1033.2  -0.6  732  301  -6      мокрый или
старый снег
50-90% 
06 24.11.16 150 (ЮВ) 20000 м    ясно 
-2.8 -7.7 69 -5  1032.3  -0.4  732  299  -6.8         
09 24.11.16 150 (ЮВ) 20000 м    ясно 
+1.7 -6.1 56 1029.9  -1.4  731  293           
12 24.11.16 120 (ЮВ) 20000 м    ясно 
+3.3 -5.1 54 1028.1  -1.4  729  291           
15 24.11.16 170 (Ю) 7{11}  20000 м    ясно 
-1.9 -5.9 74 -6  1029  0.1  729  297    +4.1       
18 24.11.16 150 (ЮВ) 6{11}  20000 м    ясно 
-0.5 -7.9 57 -4  1027.5  -1.2  728  295           
21 24.11.16 240 (ЮЗ) 20000 м    ясно 
-0.5 -7.8 58 1027.5  -1.4  727  294           
00 25.11.16 280 (З) 20000 м    ясно 
+2.1 -2.6 71 -1  1025  -0.4  727  291           
03 25.11.16 310 (СЗ) 5{10}  20000 м    8/8 200 м 
[St]
+0.3 -1.9 85 -3  1025.8  0.4  727  293  -2.8      мокрый или
старый снег
50-90% 
06 25.11.16 290 (З) 20000 м    9/9 300 м 
[St]
+1.4 -0.4 88 +1  1025.1  -0.4  727  291           
09 25.11.16 270 (З) 20000 м    3/0 средняя 
[Ac trans]
+6.8 +0.7 65 +5  1022.2  -1.8  726  285           
12 25.11.16 280 (З) 20000 м    9/9 600 м 
[Sc]
+5.9 +0.8 70 +5  1021.4  -0.9  725  286           
15 25.11.16 270 (З) 20000 м    9/9 600 м 
[Sc]
+3.8 +0.1 77 +3  1021.3  -0.5  725  288    +7.2       
18 25.11.16 210 (ЮЗ) 20000 м    8/8 600 м 
[Sc]
+3.3 +0 79 +3  1020.1  -1.2  724  288           
21 25.11.16 260 (З) 20000 м    10/5 600 м средняя 
[Sc|Ac und]
+3.1 +0.2 81 +1  1019.5  -0.6  723  288           
00 26.11.16 250 (З) 20000 м    10/6 300 м средняя 
[Sc|Ac und]
+2.9 +0.2 82 +2  1019.1  -0.6  723  288           
03 26.11.16 220 (ЮЗ) 20000 м    10/10 600 м 
[Sc]
+2.9 +0.2 82 +1  1018.8  -0.2  723  288  +2.4      мокрый или
старый снег
10-40% 
06 26.11.16 260 (З) 8-11{12}  20000 м    10/10 300 м 
[St]
+4 +1.3 83 +1  1019.6  0.9  724  287           
09 26.11.16 260 (З) 5{12}  20000 м    10/5 300 м средняя 
[Sc|Ac und]
+4.8 +1.6 80 +3  1019.3  0.1  723  286           
12 26.11.16 290 (З) 7-13{13}  20000 м  слаб. дождь  10/10 200 м 
[Frnb|Ns]
+4.4 +3.1 91 +1  1019.3  -0.1  723  286           
15 26.11.16 270 (З) 3{13}  10 км  слаб. дождь  10/10 200 м 
[Frnb|Ns]
+3.2 +2.3 94 +2  1021.1  1.5  725  288    +5.3  0.6     
18 26.11.16 220 (ЮЗ) 20000 м  {дождь}  10/10 200 м 
[St]
+3.2 +2.3 94 +3  1021.4  0.3  725  288           
21 26.11.16 250 (З) 20000 м    10/10 300 м 
[St]
+4.2 +2.8 91 +2  1021  -0.2  725  287           
00 27.11.16 220 (ЮЗ) 20000 м    10/5 600 м средняя 
[Sc|Ac und]
+3.4 +2.6 94 +3  1020.8  -0.3  724  288           
03 27.11.16 180 (Ю) 20000 м    10/5 600 м средняя 
[Sc|Ac und]
+4 +1.8 86 +3  1020.2  -0.5  724  287  +2.7    0.0     
06 27.11.16 200 (Ю) 20000 м    8/8 1000 м 
[Sc]
+4.3 +1 79 +3  1020.3  0.2  724  287           
09 27.11.16 190 (Ю) 20000 м    4/0 средняя, верхняя 
[Ac trans|Ci fib]
+10.6 +2 55 +10  1017.8  -1.2  723  280           
12 27.11.16 160 (Ю) 20000 м    3/0 средняя 
[Ac trans]
+12 -0.4 42 +12  1016.3  -1.3  722  279           
15 27.11.16 150 (ЮВ) 20000 м    ясно 
+7.1 +0.2 61 +6  1016.5  -0.6  722  283    +12.2       
18 27.11.16 160 (Ю) 20000 м    ясно 
+3.7 -0.3 75 +2  1016.4  -0.8  721  287           
21 27.11.16 140 (ЮВ) 20000 м    ясно 
+5.3 -0.9 64 +3  1014.3  -1.7  720  285           
00 28.11.16 150 (ЮВ) 20000 м    ясно 
+7.1 -4.3 44 +6  1012  -1.9  719  283           
03 28.11.16 170 (Ю) 20000 м    3/0 верхняя 
[Ci fib]
+8.9 -7.4 31 +8  1010.4  -1.2  718  281  +3.1         
06 28.11.16 200 (Ю) 20000 м    8/0 средняя 
[Ac trans]
+7.8 -2.4 48 +8  1012.3  1.6  719  282           
Время (UTC), дата Ветер
(°,м/с) 
Видим.   Явления Облачность Т
(°С)
Тd
(°С)
f(%) Тe
(°С)
Pmin
(гПа)
dP
(гПа)
Po
(мм)
O2
(г/м3)
Тmin Tmax R s Состояние
почвы